N5AJY Weather Reports


time (UTC)temp
C
wind
direction
speed
KPH
gust
KPH
rain 1hr
cm
rain 24hr
cm
rain mn
cm
humidity
%
barometer
mb
20260906192129 39 271 0.0 1.6 0.00 0.00 0.00 32 1008.1
20260906191630 39 272 0.0 9.7 0.00 0.00 0.00 31 1008.2
20260906191129 39 273 1.6 11.3 0.00 0.00 0.00 31 1008.2
20260906190630 40 273 0.0 11.3 0.00 0.00 0.00 29 1008.3
20260906190129 41 272 0.0 4.8 0.00 0.00 0.00 30 1008.4
20260906185630 40 271 0.0 1.6 0.00 0.00 0.00 31 1008.4
20260906185129 40 274 0.0 1.6 0.00 0.00 0.00 32 1008.4
20260906184628 39 0 0.0 0.0 0.00 0.00 0.00 33 1008.6
20260906184129 39 0 0.0 0.0 0.00 0.00 0.00 34 1008.6
20260906183629 39 265 0.0 90.1 0.00 0.00 0.00 34 1008.8
20260906183135 39 250 1.6 148.1 0.00 0.00 0.00 35 1008.8
20260906182629 38 246 1.6 148.1 0.00 0.00 0.00 35 1008.9
20260906182130 39 274 0.0 1.6 0.00 0.00 0.00 34 1008.9
20260906181629 38 0 0.0 0.0 0.00 0.00 0.00 35 1009.2
20260906181130 39 0 0.0 0.0 0.00 0.00 0.00 35 1009.2
20260906180630 38 0 0.0 0.0 0.00 0.00 0.00 35 1009.3
20260906180129 38 0 0.0 0.0 0.00 0.00 0.00 37 1009.4
20260906175630 38 0 0.0 0.0 0.00 0.00 0.00 37 1009.5
20260906175129 38 0 0.0 0.0 0.00 0.00 0.00 37 1009.6
20260906174628 37 0 0.0 0.0 0.00 0.00 0.00 38 1009.7
20260906174129 37 0 0.0 0.0 0.00 0.00 0.00 39 1009.8
20260906173629 37 0 0.0 0.0 0.00 0.00 0.00 40 1009.9
20260906173130 37 0 0.0 0.0 0.00 0.00 0.00 39 1010.0
20260906172629 37 0 0.0 0.0 0.00 0.00 0.00 40 1010.1
20260906172129 37 0 0.0 0.0 0.00 0.00 0.00 40 1010.2
20260906171630 36 0 0.0 0.0 0.00 0.00 0.00 41 1010.2
20260906171129 36 0 0.0 0.0 0.00 0.00 0.00 41 1010.2
20260906170628 36 0 0.0 0.0 0.00 0.00 0.00 42 1010.3
20260906170129 36 0 0.0 0.0 0.00 0.00 0.00 41 1010.4
20260906165628 36 0 0.0 0.0 0.00 0.00 0.00 42 1010.4
20260906165130 36 0 0.0 0.0 0.00 0.00 0.00 42 1010.5
20260906164629 36 0 0.0 0.0 0.00 0.00 0.00 42 1010.5
20260906164130 36 0 0.0 0.0 0.00 0.00 0.00 42 1010.5
20260906163629 36 0 0.0 0.0 0.00 0.00 0.00 41 1010.6
20260906163130 36 0 0.0 0.0 0.00 0.00 0.00 42 1010.7
20260906162629 36 0 0.0 0.0 0.00 0.00 0.00 44 1010.6
20260906162130 36 0 0.0 0.0 0.00 0.00 0.00 44 1010.6
20260906161945 36 0 0.0 0.0 0.00 0.00 0.00 45 1010.7
20260906161629 36 0 0.0 0.0 0.00 0.00 0.00 45 1010.7
20260906161130 35 0 0.0 0.0 0.00 0.00 0.00 46 1010.7
20260906160629 35 0 0.0 0.0 0.00 0.00 0.00 47 1010.6
20260906160129 35 0 0.0 0.0 0.00 0.00 0.00 47 1010.8
20260906155632 35 0 0.0 0.0 0.00 0.00 0.00 47 1010.8
20260906155129 35 0 0.0 0.0 0.00 0.00 0.00 48 1010.8
20260906154630 35 0 0.0 0.0 0.00 0.00 0.00 48 1010.8
20260906154129 34 0 0.0 0.0 0.00 0.00 0.00 49 1010.7
20260906153630 33 0 0.0 0.0 0.00 0.00 0.00 49 1010.7
20260906153129 34 0 0.0 0.0 0.00 0.00 0.00 50 1010.7
20260906152628 34 0 0.0 0.0 0.00 0.00 0.00 50 1010.6
20260906152130 33 0 0.0 0.0 0.00 0.00 0.00 50 1010.7
20260906151629 33 0 0.0 0.0 0.00 0.00 0.00 51 1010.7
20260906151130 33 0 0.0 0.0 0.00 0.00 0.00 51 1010.6
20260906150629 34 0 0.0 0.0 0.00 0.00 0.00 50 1010.7
20260906150130 33 0 0.0 0.0 0.00 0.00 0.00 54 1010.6
20260906145629 32 0 0.0 0.0 0.00 0.00 0.00 55 1010.6
20260906145128 32 0 0.0 0.0 0.00 0.00 0.00 55 1010.6
20260906144630 32 0 0.0 0.0 0.00 0.00 0.00 56 1010.6
20260906144129 31 0 0.0 0.0 0.00 0.00 0.00 57 1010.5
20260906143631 32 0 0.0 0.0 0.00 0.00 0.00 56 1010.5
20260906143131 32 0 0.0 0.0 0.00 0.00 0.00 57 1010.6
20260906142629 32 0 0.0 0.0 0.00 0.00 0.00 56 1010.6
20260906141630 31 0 0.0 0.0 0.00 0.00 0.00 61 1010.6
20260906141131 31 0 0.0 0.0 0.00 0.00 0.00 61 1010.5
20260906140630 30 0 0.0 0.0 0.00 0.00 0.00 63 1010.5
20260906140129 30 0 0.0 0.0 0.00 0.00 0.00 66 1010.5
20260906135629 29 0 0.0 0.0 0.00 0.00 0.00 66 1010.4
20260906135133 29 0 0.0 0.0 0.00 0.00 0.00 66 1010.4
20260906134629 28 0 0.0 0.0 0.00 0.00 0.00 68 1010.4
20260906134129 28 0 0.0 0.0 0.00 0.00 0.00 71 1010.4
20260906133629 28 0 0.0 0.0 0.00 0.00 0.00 71 1010.4
20260906133130 27 0 0.0 0.0 0.00 0.00 0.00 71 1010.4
20260906132628 27 0 0.0 0.0 0.00 0.00 0.00 72 1010.4
20260906131629 27 0 0.0 0.0 0.00 0.00 0.00 73 1010.4
20260906131132 27 0 0.0 0.0 0.00 0.00 0.00 73 1010.3
20260906130628 26 0 0.0 0.0 0.00 0.00 0.00 74 1010.3
20260906130129 26 0 0.0 0.0 0.00 0.00 0.00 74 1010.3
20260906125629 25 0 0.0 0.0 0.00 0.00 0.00 75 1010.2
20260906125129 25 0 0.0 0.0 0.00 0.00 0.00 75 1010.1
20260906124628 25 0 0.0 0.0 0.00 0.00 0.00 75 1010.1
20260906124127 25 0 0.0 0.0 0.00 0.00 0.00 75 1010.0
20260906123629 25 0 0.0 0.0 0.00 0.00 0.00 75 1010.0
20260906123128 25 0 0.0 0.0 0.00 0.00 0.00 75 1009.9
20260906122629 25 0 0.0 0.0 0.00 0.00 0.00 75 1009.8
20260906122130 25 0 0.0 0.0 0.00 0.00 0.00 75 1009.8
20260906121629 25 0 0.0 0.0 0.00 0.00 0.00 75 1009.8
20260906121128 25 0 0.0 0.0 0.00 0.00 0.00 75 1009.8
20260906120629 25 0 0.0 0.0 0.00 0.00 0.00 75 1009.6
20260906120129 25 0 0.0 0.0 0.00 0.00 0.00 75 1009.7
20260906115628 25 0 0.0 0.0 0.00 0.00 0.00 75 1009.7
20260906115129 25 0 0.0 0.0 0.00 0.00 0.00 75 1009.7
20260906114629 25 0 0.0 0.0 0.00 0.00 0.00 75 1009.6
20260906114129 25 0 0.0 0.0 0.00 0.00 0.00 75 1009.6
20260906113628 25 0 0.0 0.0 0.00 0.00 0.00 75 1009.4
20260906113128 25 0 0.0 0.0 0.00 0.00 0.00 75 1009.4
20260906112628 25 0 0.0 0.0 0.00 0.00 0.00 75 1009.3
20260906112128 25 0 0.0 0.0 0.00 0.00 0.00 75 1009.4
20260906111629 25 0 0.0 0.0 0.00 0.00 0.00 75 1009.3
20260906111128 25 0 0.0 0.0 0.00 0.00 0.00 75 1009.3
20260906110629 25 0 0.0 0.0 0.00 0.00 0.00 75 1009.2
20260906110128 25 0 0.0 0.0 0.00 0.00 0.00 75 1009.3
20260906105627 25 0 0.0 0.0 0.00 0.00 0.00 75 1009.2
20260906104628 25 0 0.0 0.0 0.00 0.00 0.00 75 1009.1
20260906104129 25 0 0.0 0.0 0.00 0.00 0.00 75 1009.2
20260906103629 25 0 0.0 0.0 0.00 0.00 0.00 75 1009.2
20260906103129 25 0 0.0 0.0 0.00 0.00 0.00 75 1009.2
20260906102628 25 0 0.0 0.0 0.00 0.00 0.00 75 1009.1
20260906102128 25 0 0.0 0.0 0.00 0.00 0.00 75 1009.1
20260906101630 25 0 0.0 0.0 0.00 0.00 0.00 75 1009.1
20260906101128 25 0 0.0 0.0 0.00 0.00 0.00 75 1009.2
20260906100629 25 0 0.0 0.0 0.00 0.00 0.00 75 1009.2
20260906100128 25 0 0.0 0.0 0.00 0.00 0.00 75 1009.3
20260906095630 25 0 0.0 0.0 0.00 0.00 0.00 75 1009.1
20260906095130 25 0 0.0 0.0 0.00 0.00 0.00 75 1009.0
20260906094628 25 0 0.0 0.0 0.00 0.00 0.00 75 1009.1
20260906094129 25 0 0.0 0.0 0.00 0.00 0.00 75 1009.0
20260906093628 25 0 0.0 0.0 0.00 0.00 0.00 76 1009.0
20260906093127 25 0 0.0 0.0 0.00 0.00 0.00 76 1009.0
20260906092628 25 0 0.0 0.0 0.00 0.00 0.00 76 1008.9
20260906092128 25 0 0.0 0.0 0.00 0.00 0.00 76 1008.9
20260906091630 25 0 0.0 0.0 0.00 0.00 0.00 76 1008.9
20260906091128 25 0 0.0 0.0 0.00 0.00 0.00 76 1008.9
20260906090629 25 0 0.0 0.0 0.00 0.00 0.00 76 1008.9
20260906090128 25 0 0.0 0.0 0.00 0.00 0.00 76 1008.8
20260906085633 25 0 0.0 0.0 0.00 0.00 0.00 76 1008.8
20260906085128 25 0 0.0 0.0 0.00 0.00 0.00 75 1008.7
20260906084628 25 0 0.0 0.0 0.00 0.00 0.00 75 1008.7
20260906084129 25 0 0.0 0.0 0.00 0.00 0.00 75 1008.6
20260906083628 26 0 0.0 0.0 0.00 0.00 0.00 74 1008.5
20260906083130 26 0 0.0 0.0 0.00 0.00 0.00 74 1008.5
20260906082629 26 0 0.0 0.0 0.00 0.00 0.00 74 1008.5
20260906082129 26 0 0.0 0.0 0.00 0.00 0.00 74 1008.5
20260906081628 26 0 0.0 0.0 0.00 0.00 0.00 74 1008.5
20260906081127 26 0 0.0 0.0 0.00 0.00 0.00 73 1008.5
20260906080630 26 0 0.0 0.0 0.00 0.00 0.00 73 1008.4
20260906080129 26 0 0.0 0.0 0.00 0.00 0.00 73 1008.4
20260906075630 26 0 0.0 0.0 0.00 0.00 0.00 73 1008.2
20260906075129 26 0 0.0 0.0 0.00 0.00 0.00 73 1008.2
20260906074630 26 0 0.0 0.0 0.00 0.00 0.00 73 1008.1
20260906074129 26 0 0.0 0.0 0.00 0.00 0.00 73 1008.1
20260906073627 26 0 0.0 0.0 0.00 0.00 0.00 72 1008.2
20260906073130 26 0 0.0 0.0 0.00 0.00 0.00 72 1008.2
20260906072629 26 0 0.0 0.0 0.00 0.00 0.00 72 1008.4
20260906072130 26 0 0.0 0.0 0.00 0.00 0.00 72 1008.3
20260906071629 26 0 0.0 0.0 0.00 0.00 0.00 71 1008.5
20260906071130 26 0 0.0 0.0 0.00 0.00 0.00 71 1008.5
20260906070629 26 0 0.0 0.0 0.00 0.00 0.00 72 1008.5
20260906070129 26 0 0.0 0.0 0.00 0.00 0.00 72 1008.5
20260906065630 26 0 0.0 0.0 0.00 0.00 0.00 72 1008.3
20260906065129 26 0 0.0 0.0 0.00 0.00 0.00 72 1008.4
20260906064630 26 0 0.0 0.0 0.00 0.00 0.00 72 1008.3
20260906064129 26 0 0.0 0.0 0.00 0.00 0.00 72 1008.4
20260906063630 26 0 0.0 0.0 0.00 0.00 0.00 72 1008.3
20260906063128 26 0 0.0 0.0 0.00 0.00 0.00 71 1008.4
20260906062628 26 0 0.0 0.0 0.00 0.00 0.00 71 1008.4
20260906062130 26 0 0.0 0.0 0.00 0.00 0.00 71 1008.4
20260906061629 26 0 0.0 0.0 0.00 0.00 0.00 71 1008.4
20260906061130 26 0 0.0 0.0 0.00 0.00 0.00 71 1008.5
20260906060629 26 0 0.0 0.0 0.00 0.00 0.00 70 1008.5
20260906060128 27 0 0.0 0.0 0.00 0.00 0.00 70 1008.6
20260906055630 27 0 0.0 0.0 0.00 0.00 0.00 70 1008.5
20260906055128 27 0 0.0 0.0 0.00 0.00 0.00 69 1008.5
20260906054630 27 0 0.0 0.0 0.00 0.00 0.00 68 1008.6
20260906054129 27 0 0.0 0.0 0.00 0.00 0.00 68 1008.5
20260906053629 27 0 0.0 0.0 0.00 0.00 0.00 67 1008.5
20260906053128 27 0 0.0 0.0 0.00 0.00 0.00 66 1008.5
20260906052130 27 0 0.0 0.0 0.00 0.00 0.00 65 1008.4
20260906051651 28 0 0.0 0.0 0.00 0.00 0.00 65 1008.3
20260906051130 28 0 0.0 0.0 0.00 0.00 0.00 64 1008.4
20260906050629 28 0 0.0 0.0 0.00 0.00 0.00 64 1008.2
20260906050128 28 0 0.0 0.0 0.00 0.00 0.00 63 1008.3
20260906045628 28 0 0.0 0.0 0.00 0.00 0.00 63 1008.2
20260906045128 28 0 0.0 0.0 0.00 0.00 0.00 63 1008.2
20260906044630 28 0 0.0 0.0 0.00 0.00 0.00 63 1008.4
20260906044129 28 0 0.0 0.0 0.00 0.00 0.00 62 1008.2
20260906043630 28 0 0.0 0.0 0.00 0.00 0.00 62 1008.1
20260906043128 28 0 0.0 0.0 0.00 0.00 0.00 62 1008.2
20260906042628 28 0 0.0 0.0 0.00 0.00 0.00 62 1008.1
20260906042129 28 0 0.0 0.0 0.00 0.00 0.00 62 1008.2
20260906041628 28 0 0.0 0.0 0.00 0.00 0.00 61 1008.2
20260906041138 29 0 0.0 0.0 0.00 0.00 0.00 60 1008.1
20260906040628 29 0 0.0 0.0 0.00 0.00 0.00 59 1008.2
20260906040129 29 0 0.0 0.0 0.00 0.00 0.00 58 1008.2
20260906035628 29 0 0.0 0.0 0.00 0.00 0.00 58 1008.3
20260906035128 30 0 0.0 0.0 0.00 0.00 0.00 57 1008.3
20260906034628 30 0 0.0 0.0 0.00 0.00 0.00 56 1008.2
20260906034129 30 0 0.0 0.0 0.00 0.00 0.00 56 1008.2
20260906033630 30 0 0.0 0.0 0.00 0.00 0.00 56 1008.0
20260906033131 30 270 1.6 61.2 0.00 0.00 0.00 55 1008.0
20260906032630 30 270 3.2 117.5 0.00 0.00 0.00 55 1008.1
20260906032129 30 270 4.8 135.2 0.00 0.00 0.00 54 1008.1
20260906031630 30 270 3.2 135.2 0.00 0.00 0.00 54 1008.0
20260906031130 30 0 0.0 0.0 0.00 0.00 0.00 54 1007.9
20260906030629 30 0 0.0 0.0 0.00 0.00 0.00 55 1008.0
20260906030136 30 0 0.0 0.0 0.00 0.00 0.00 54 1008.1
20260906025629 30 0 0.0 0.0 0.00 0.00 0.00 53 1008.0
20260906025130 30 0 0.0 0.0 0.00 0.00 0.00 53 1007.9
20260906024629 30 0 0.0 0.0 0.00 0.00 0.00 53 1008.0
20260906024131 30 0 0.0 0.0 0.00 0.00 0.00 54 1007.9
20260906023629 30 0 0.0 0.0 0.00 0.00 0.00 53 1007.9
20260906023129 31 0 0.0 0.0 0.00 0.00 0.00 52 1007.8
20260906022630 31 0 0.0 0.0 0.00 0.00 0.00 52 1007.6
20260906022128 31 0 0.0 0.0 0.00 0.00 0.00 51 1007.5
20260906021630 31 0 0.0 0.0 0.00 0.00 0.00 51 1007.3
20260906021129 31 0 0.0 0.0 0.00 0.00 0.00 52 1007.4
20260906020631 31 0 0.0 0.0 0.00 0.00 0.00 51 1007.4
20260906020130 31 0 0.0 0.0 0.00 0.00 0.00 50 1007.4
20260906015629 31 0 0.0 0.0 0.00 0.00 0.00 50 1007.3
20260906015130 31 0 0.0 0.0 0.00 0.00 0.00 50 1007.2
20260906014629 32 0 0.0 0.0 0.00 0.00 0.00 49 1007.3
20260906014128 32 0 0.0 0.0 0.00 0.00 0.00 49 1007.2
20260906013629 32 0 0.0 0.0 0.00 0.00 0.00 48 1007.1
20260906013129 32 0 0.0 0.0 0.00 0.00 0.00 48 1007.0
20260906012628 33 0 0.0 0.0 0.00 0.00 0.00 47 1007.0
20260906012130 33 0 0.0 0.0 0.00 0.00 0.00 47 1007.0
20260906011629 33 0 0.0 0.0 0.00 0.00 0.00 46 1007.0
20260906011130 33 0 0.0 0.0 0.00 0.00 0.00 46 1007.0
20260906010629 33 0 0.0 0.0 0.00 0.00 0.00 46 1006.9
20260906010130 34 0 0.0 0.0 0.00 0.00 0.00 45 1006.9
20260906005629 34 0 0.0 0.0 0.00 0.00 0.00 44 1006.8
20260906005129 35 0 0.0 0.0 0.00 0.00 0.00 43 1006.8
20260906004630 35 0 0.0 0.0 0.00 0.00 0.00 42 1006.7
20260906004129 36 0 0.0 0.0 0.00 0.00 0.00 40 1006.8
20260906003633 36 0 0.0 0.0 0.00 0.00 0.00 39 1006.8
20260906003129 36 0 0.0 0.0 0.00 0.00 0.00 39 1006.9
20260906002628 37 0 0.0 0.0 0.00 0.00 0.00 38 1006.8
20260906002130 37 0 0.0 0.0 0.00 0.00 0.00 37 1006.8
20260906001629 38 0 0.0 0.0 0.00 0.00 0.00 34 1006.7
20260906001130 38 0 0.0 0.0 0.00 0.00 0.00 34 1006.8
20260906000629 39 0 0.0 0.0 0.00 0.00 0.00 34 1006.7
20260906000130 39 0 0.0 0.0 0.00 0.00 0.00 33 1006.6
20260905235629 40 0 0.0 0.0 0.00 0.00 0.00 31 1006.6
20260905235128 40 0 0.0 0.0 0.00 0.00 0.00 31 1006.7
20260905234630 40 0 0.0 0.0 0.00 0.00 0.00 32 1006.7
20260905234130 39 0 0.0 0.0 0.00 0.00 0.00 32 1006.7
20260905233629 39 0 0.0 0.0 0.00 0.00 0.00 32 1006.7
20260905233130 39 0 0.0 0.0 0.00 0.00 0.00 32 1006.6
20260905232629 40 0 0.0 0.0 0.00 0.00 0.00 31 1006.6
20260905232130 40 0 0.0 0.0 0.00 0.00 0.00 30 1006.6
20260905231629 41 0 0.0 0.0 0.00 0.00 0.00 30 1006.6
20260905231129 41 0 0.0 0.0 0.00 0.00 0.00 30 1006.5
20260905230630 41 0 0.0 0.0 0.00 0.00 0.00 30 1006.6
20260905230129 40 0 0.0 0.0 0.00 0.00 0.00 31 1006.5
20260905225630 40 0 0.0 0.0 0.00 0.00 0.00 31 1006.5
20260905225129 40 0 0.0 0.0 0.00 0.00 0.00 31 1006.5
20260905224630 40 0 0.0 0.0 0.00 0.00 0.00 32 1006.6
20260905224130 39 0 0.0 0.0 0.00 0.00 0.00 32 1006.6
20260905223629 40 0 0.0 0.0 0.00 0.00 0.00 30 1006.6
20260905223130 41 0 0.0 0.0 0.00 0.00 0.00 30 1006.6
20260905222629 40 0 0.0 0.0 0.00 0.00 0.00 31 1006.7
20260905222129 40 0 0.0 0.0 0.00 0.00 0.00 30 1006.8
20260905221630 40 0 0.0 0.0 0.00 0.00 0.00 30 1006.8
20260905221129 40 0 0.0 0.0 0.00 0.00 0.00 30 1006.8
20260905220628 40 0 0.0 0.0 0.00 0.00 0.00 30 1006.9
20260905220129 40 0 0.0 0.0 0.00 0.00 0.00 30 1006.9
20260905215629 40 0 0.0 0.0 0.00 0.00 0.00 30 1006.9
20260905215130 40 0 0.0 0.0 0.00 0.00 0.00 31 1007.0
20260905214629 40 0 0.0 0.0 0.00 0.00 0.00 31 1007.0
20260905214130 40 0 0.0 0.0 0.00 0.00 0.00 32 1007.1
20260905213630 39 0 0.0 0.0 0.00 0.00 0.00 32 1007.1
20260905213129 40 0 0.0 0.0 0.00 0.00 0.00 31 1007.2
20260905212628 41 0 0.0 0.0 0.00 0.00 0.00 30 1007.3
20260905212129 40 0 0.0 0.0 0.00 0.00 0.00 31 1007.3
20260905211629 40 0 0.0 0.0 0.00 0.00 0.00 32 1007.4
20260905211130 40 0 0.0 0.0 0.00 0.00 0.00 33 1007.5
20260905210629 39 0 0.0 0.0 0.00 0.00 0.00 33 1007.5
20260905210130 40 0 0.0 0.0 0.00 0.00 0.00 32 1007.6
20260905205629 38 0 0.0 0.0 0.00 0.00 0.00 33 1007.7
20260905204630 38 0 0.0 0.0 0.00 0.00 0.00 34 1007.9
20260905204129 38 0 0.0 0.0 0.00 0.00 0.00 34 1007.9
20260905203630 39 0 0.0 0.0 0.00 0.00 0.00 33 1008.0
20260905203129 40 0 0.0 0.0 0.00 0.00 0.00 33 1008.1
20260905202628 40 0 0.0 0.0 0.00 0.00 0.00 33 1008.2
20260905202130 40 0 0.0 0.0 0.00 0.00 0.00 33 1008.3
20260905201629 40 0 0.0 0.0 0.00 0.00 0.00 33 1008.4
20260905201130 40 0 0.0 0.0 0.00 0.00 0.00 34 1008.5
20260905200629 40 0 0.0 0.0 0.00 0.00 0.00 33 1008.6
20260905200130 40 0 0.0 0.0 0.00 0.00 0.00 31 1008.6
20260905195629 40 0 0.0 0.0 0.00 0.00 0.00 32 1008.7
20260905195130 40 0 0.0 0.0 0.00 0.00 0.00 32 1008.9
20260905194630 40 0 0.0 0.0 0.00 0.00 0.00 33 1008.8
20260905194129 40 0 0.0 0.0 0.00 0.00 0.00 33 1008.9
20260905193630 40 0 0.0 0.0 0.00 0.00 0.00 33 1009.0
20260905193129 40 0 0.0 0.0 0.00 0.00 0.00 34 1009.1
20260905192628 40 0 0.0 0.0 0.00 0.00 0.00 33 1009.2